This demonstration page uses our WeatherBlox Daily Observations layout. Learn more.

Left ArrowRight Arrow

Hourly Observations for October 21, 2021

Temp ( °F °C ) Dew Point ( °F °C ) Humidity (%) Winds ( mph kmh ) Pressure ( in mb ) Visibility ( mi km ) Precip ( " mm )
12:53 am 00:53 Clear 36 2.2 27 -2.8 70 70 N N/A 30.09 1019 10 16 N/A
1:53 am 01:53 Clear 31 -0.6 25 -3.9 79 79 W 7 11 30.09 1019 10 16 N/A
2:53 am 02:53 Clear 35 1.7 29 -1.7 78 78 WSW 8 13 30.08 1019 10 16 N/A
3:53 am 03:53 Clear 36 2.2 31 -0.6 82 82 NW 5 7 30.07 1018 10 16 N/A
4:53 am 04:53 Clear 36 2.2 30 -1.1 79 79 NW 9 15 30.08 1019 10 16 N/A
5:53 am 05:53 Clear 37 2.8 31 -0.6 79 79 VRB 7 11 30.09 1019 10 16 N/A
6:53 am 06:53 Clear 33 0.6 27 -2.8 78 78 NE 3 6 30.11 1020 10 16 N/A
7:53 am 07:53 Sunny 33 0.6 27 -2.8 78 78 ESE 7 11 30.11 1020 10 16 N/A
8:53 am 08:53 Sunny 36 2.2 29 -1.7 76 76 WNW 7 11 30.13 1020 10 16 N/A
9:53 am 09:53 Sunny 50 10 36 2.2 59 59 SSW 8 13 30.11 1020 10 16 N/A
10:53 am 10:53 Sunny 55 12.8 35 1.7 47 47 SSW 13 20 30.11 1020 10 16 N/A
11:53 am 11:53 Sunny 60 15.6 33 0.6 36 36 SW 15 24 30.09 1019 10 16 N/A
12:53 pm 12:53 Sunny 64 17.8 30 -1.1 28 28 W 22 35 30.06 1018 10 16 N/A
1:53 pm 13:53 Sunny 65 18.3 29 -1.7 26 26 W 21 33 30.05 1018 10 16 N/A
2:53 pm 14:53 Sunny 65 18.3 27 -2.8 24 24 W 21 33 30.04 1017 10 16 N/A
3:53 pm 15:53 Sunny 65 18.3 27 -2.8 24 24 W 15 24 30.03 1017 10 16 N/A
4:53 pm 16:53 Sunny 65 18.3 27 -2.8 24 24 W 17 28 30.03 1017 10 16 N/A
5:53 pm 17:53 Sunny 60 15.6 26 -3.3 27 27 W 9 15 30.04 1017 10 16 N/A
6:53 pm 18:53 Clear 47 8.3 23 -5 39 39 WSW 6 9 30.08 1019 10 16 N/A
7:53 pm 19:53 Clear 45 7.2 23 -5 42 42 WSW 5 7 30.09 1019 10 16 N/A
8:53 pm 20:53 Clear 40 4.4 22 -5.6 49 49 SSW 7 11 30.08 1019 10 16 N/A
9:53 pm 21:53 Clear 36 2.2 22 -5.6 57 57 S 6 9 30.07 1018 10 16 N/A
10:53 pm 22:53 Clear 36 2.2 22 -5.6 57 57 N N/A 30.07 1018 10 16 N/A
11:53 pm 23:53 Clear 34 1.1 21 -6.1 59 59 N N/A 30.06 1018 10 16 N/A

Powered by AerisWeather